Location: Oteiza
(42.6167°N, 1.9500°W)
Time: 07:29:49
(UTC+02:00)

Amateur Radio Satellites - All Passes

Search period start: 28 June 2017 06:59
Search period end: 29 June 2017 06:59
Location: Oteiza, 42.6167°N, 1.9500°W

Satellite Date Start Highest point End Downlink Frequencies (MHz)
Time Altitude Azimuth
O/OREOS (USA 219) 28 Jun 07:02:29 07:05:04 15° 52° (NE) 07:07:37 437.305
XW-2D 28 Jun 07:10:19 07:11:29 11° 90° (E) 07:12:37 145.860 - 145.880
CUTE-I 28 Jun 07:13:01 07:15:55 15° 90° (E) 07:18:47 437.470
NO-84 28 Jun 07:14:04 07:15:52 12° 239° (WSW) 07:17:38 435.350 FM
BEESAT 2 28 Jun 07:17:36 07:21:42 80° 58° (ENE) 07:25:43 435.950
XW-2B 28 Jun 07:18:40 07:20:39 14° 91° (E) 07:22:37 145.730 - 145.750
STARS 28 Jun 07:18:45 07:22:46 35° 262° (W) 07:26:50 437.465
LilacSat-2 28 Jun 07:20:46 07:23:08 16° 92° (E) 07:25:28 437.200
ITAMSAT 1 28 Jun 07:31:09 07:33:29 13° 303° (WNW) 07:35:50 435.822/435.867
XW-2C 28 Jun 07:33:30 07:36:25 21° 94° (E) 07:39:19 145.795 - 145.815
KAITUO 1B 28 Jun 07:41:12 07:43:58 20° 94° (E) 07:46:42 145.475/437.950
DOVE 4 28 Jun 07:41:21 07:46:19 68° 101° (E) 07:51:29 437.250
AO-85 28 Jun 07:48:27 07:50:08 12° 250° (WSW) 07:51:52 145.980
BEESAT 3 28 Jun 07:51:25 07:53:55 16° 249° (WSW) 07:56:24 437.485
STRAND 1 28 Jun 08:05:21 08:10:07 41° 69° (ENE) 08:14:57 437.568
YUBILEINY 28 Jun 08:07:34 08:10:44 12° 53° (NE) 08:13:54 435.215
NUDT-PHONESAT 28 Jun 08:12:27 08:16:03 47° 99° (E) 08:19:35 437.300
AO-7 28 Jun 08:14:31 08:20:02 20° 312° (NW) 08:25:33 .
Tancredo 1 28 Jun 08:16:51 08:19:33 30° 138° (SE) 08:22:16 437.200
XW-2F 28 Jun 08:36:20 08:40:04 65° 285° (WNW) 08:43:45 145.980 - 146.000
O/OREOS (USA 219) 28 Jun 08:40:30 08:44:57 66° 250° (WSW) 08:49:21 437.305
XW-2D 28 Jun 08:42:18 08:45:58 50° 286° (WNW) 08:49:35 145.860 - 145.880
SEEDS 28 Jun 08:43:22 08:45:32 14° 91° (E) 08:47:41 437.485
CUTE-I 28 Jun 08:51:07 08:56:30 74° 286° (WNW) 09:01:51 437.470
XW-2B 28 Jun 08:51:29 08:55:02 40° 288° (WNW) 08:58:33 145.730 - 145.750
LilacSat-2 28 Jun 08:54:04 08:57:32 35° 288° (WNW) 09:00:59 437.200
RS-15 28 Jun 08:54:32 09:04:50 36° 255° (WSW) 09:14:44 29.354- 29.394
CUTE 1.7 + AOD 2 28 Jun 09:04:37 09:08:33 37° 98° (E) 09:12:27 437.475
ISS 28 Jun 09:07:22 09:10:31 48° 141° (SE) 09:13:41 437.550
XW-2C 28 Jun 09:07:25 09:10:35 26° 291° (WNW) 09:13:45 145.795 - 145.815
KAITUO 1B 28 Jun 09:14:48 09:17:59 27° 290° (WNW) 09:21:06 145.475/437.950
DOVE 4 28 Jun 09:20:29 09:23:30 16° 297° (WNW) 09:26:34 437.250
HO-68 28 Jun 09:24:56 09:32:03 61° 102° (ESE) 09:39:06 435.675
AAUSAT CUBESAT 2 28 Jun 09:25:33 09:28:30 19° 93° (E) 09:31:26 437.432
M-CUBED/EXP-1 PRIME 28 Jun 09:40:03 09:41:56 15° 61° (ENE) 09:43:49 437.505
CUBEBUG 2 28 Jun 09:43:34 09:48:11 54° 99° (E) 09:52:39 437.445
STRAND 1 28 Jun 09:45:14 09:49:25 25° 266° (W) 09:53:40 437.568
NUDT-PHONESAT 28 Jun 09:47:54 09:49:31 13° 296° (WNW) 09:51:07 437.300
Oscar 11 28 Jun 09:49:08 09:51:15 13° 90° (E) 09:53:22 .
Tancredo 1 28 Jun 09:52:17 09:55:06 33° 335° (NNW) 09:57:54 437.200
XW-2A 28 Jun 09:53:26 09:56:50 71° 284° (WNW) 10:00:11 145.665 - 145.685
ZACube-1 28 Jun 10:00:43 10:04:29 27° 94° (E) 10:08:09 437.345
YUBILEINY 28 Jun 10:01:03 10:09:47 60° 77° (ENE) 10:18:25 435.215
FO-29 28 Jun 10:02:22 10:07:50 32° 62° (ENE) 10:13:54 435.910
UWE-3 28 Jun 10:11:32 10:16:05 63° 101° (E) 10:20:28 435.000/436.395/437.385
PRISM 28 Jun 10:13:31 10:16:17 18° 65° (ENE) 10:19:03 437.425
UNISAT 6 28 Jun 10:17:07 10:20:41 22° 65° (ENE) 10:24:18 437.425
SEEDS 28 Jun 10:17:28 10:21:30 50° 287° (WNW) 10:25:31 437.485
CUTE-I 28 Jun 10:34:07 10:35:36 11° 305° (NW) 10:37:05 437.470
CUTE 1.7 + AOD 2 28 Jun 10:41:06 10:44:07 19° 294° (WNW) 10:47:07 437.475
ISS 28 Jun 10:44:12 10:47:07 29° 339° (NNW) 10:50:03 437.550
AO-73 28 Jun 10:59:39 11:04:06 78° 283° (WNW) 11:08:23 145.935
AAUSAT CUBESAT 2 28 Jun 11:00:18 11:04:03 35° 289° (WNW) 11:07:49 437.432
TIGRISAT 28 Jun 11:09:26 11:14:01 68° 74° (ENE) 11:18:42 435.000
M-CUBED/EXP-1 PRIME 28 Jun 11:13:15 11:16:11 30° 257° (WSW) 11:19:06 437.505
HO-68 28 Jun 11:13:23 11:19:18 29° 301° (WNW) 11:25:11 435.675
CUBEBUG 2 28 Jun 11:21:16 11:24:20 17° 297° (WNW) 11:27:20 437.445
Oscar 11 28 Jun 11:23:31 11:27:44 55° 287° (WNW) 11:31:55 .
Tancredo 1 28 Jun 11:29:24 11:31:19 15° 355° (N) 11:33:15 437.200
ZACube-1 28 Jun 11:36:53 11:40:43 29° 292° (WNW) 11:44:27 437.345
FO-29 28 Jun 11:46:37 11:52:33 48° 263° (W) 11:59:18 435.910
PRISM 28 Jun 11:47:29 11:51:16 38° 261° (W) 11:55:05 437.425
UWE-3 28 Jun 11:49:31 11:51:57 14° 298° (WNW) 11:54:22 435.000/436.395/437.385
UNISAT 6 28 Jun 11:52:46 11:57:07 40° 263° (W) 12:01:33 437.425
YUBILEINY 28 Jun 11:58:39 12:06:00 31° 277° (W) 12:13:20 435.215
DELFI C3 28 Jun 12:01:02 12:04:59 76° 284° (WNW) 12:08:55 145.870
POLYITAN 1 28 Jun 12:07:52 12:10:58 20° 65° (ENE) 12:14:06 437.675
EO-88 28 Jun 12:18:03 12:21:41 67° 284° (WNW) 12:25:16 145.990 - 145.960
QB50P2 28 Jun 12:18:17 12:21:53 27° 68° (ENE) 12:25:30 145.880/145.840
ISS 28 Jun 12:22:08 12:24:22 17° 359° (N) 12:26:36 437.550
AIST 2D 28 Jun 12:29:28 12:32:59 66° 76° (ENE) 12:36:31 435.315
LO-87 28 Jun 12:31:48 12:34:37 21° 94° (E) 12:37:26 145.935 - 145.965
PCSat 28 Jun 12:32:47 12:37:50 41° 112° (ESE) 12:42:53 145.827
ESTCUBE 1 28 Jun 12:33:31 12:36:04 15° 91° (E) 12:38:37 437.505/2401.250
EO-79 28 Jun 12:41:13 12:45:15 43° 72° (ENE) 12:49:19 145.935-145.965
TIGRISAT 28 Jun 12:49:06 12:51:10 13° 271° (W) 12:53:16 435.000
DUCHIFAT 1 28 Jun 12:51:40 12:55:43 45° 72° (ENE) 12:59:48 145.980
NANOSAT C BR1 28 Jun 13:01:38 13:05:50 67° 74° (ENE) 13:10:05 145.865
Tancredo 1 28 Jun 13:05:23 13:07:43 20° 15° (NNE) 13:10:03 437.200
Oscar 19 28 Jun 13:09:41 13:11:38 12° 57° (ENE) 13:13:34 437.125/150
POLYITAN 1 28 Jun 13:42:29 13:46:28 38° 262° (W) 13:50:31 437.675
BUGSAT 1 28 Jun 13:49:51 13:53:55 60° 74° (ENE) 13:58:05 437.445
QB50P2 28 Jun 13:53:58 13:57:36 27° 265° (W) 14:01:16 145.880/145.840
SPROUT 28 Jun 13:56:32 14:00:18 29° 96° (E) 14:04:03 437.525
VELOX 1 28 Jun 13:57:46 14:01:34 27° 96° (E) 14:05:21 145.980
ISS 28 Jun 13:58:49 14:01:39 26° 19° (NNE) 14:04:29 437.550
LO-87 28 Jun 14:04:59 14:08:01 25° 290° (WNW) 14:11:02 145.935 - 145.965
ESTCUBE 1 28 Jun 14:08:49 14:13:11 54° 287° (WNW) 14:17:32 437.505/2401.250
DX 1 28 Jun 14:09:41 14:11:10 11° 90° (E) 14:12:39 434.975-435.025
PCSat 28 Jun 14:16:27 14:21:18 32° 311° (NW) 14:26:11 145.827
EO-79 28 Jun 14:18:27 14:21:12 17° 268° (W) 14:24:00 145.935-145.965
Gurwin Techsat 1B 28 Jun 14:23:10 14:27:57 35° 67° (ENE) 14:32:44 435.225
DUCHIFAT 1 28 Jun 14:29:00 14:31:36 16° 268° (W) 14:34:14 145.980
Tancredo 1 28 Jun 14:40:36 14:43:39 83° 38° (NE) 14:46:41 437.200
NANOSAT C BR1 28 Jun 14:40:52 14:41:59 11° 271° (W) 14:43:07 145.865
Oscar 19 28 Jun 14:44:59 14:50:09 86° 73° (ENE) 14:55:19 437.125/150
SO-50 28 Jun 14:46:08 14:50:24 40° 117° (ESE) 14:54:38 436.795
50 SAT 28 Jun 14:59:53 15:03:17 65° 101° (E) 15:06:40 437.505
BUGSAT 1 28 Jun 15:28:11 15:29:41 12° 270° (W) 15:31:11 437.445
AO-7 28 Jun 15:28:14 15:35:36 37° 58° (ENE) 15:43:00 .
ITAMSAT 1 28 Jun 15:30:37 15:34:23 21° 62° (ENE) 15:38:11 435.822/435.867
SPROUT 28 Jun 15:32:32 15:36:06 26° 292° (WNW) 15:39:38 437.525
VELOX 1 28 Jun 15:34:08 15:37:58 29° 292° (WNW) 15:41:47 145.980
ISS 28 Jun 15:35:05 15:38:21 63° 217° (SW) 15:41:36 437.550
DX 1 28 Jun 15:43:26 15:47:47 67° 286° (WNW) 15:52:07 434.975-435.025
UKube-1 28 Jun 15:54:18 15:58:38 75° 286° (WNW) 16:02:57 .
Gurwin Techsat 1B 28 Jun 16:03:14 16:07:53 31° 264° (W) 16:12:34 435.225
Tancredo 1 28 Jun 16:18:02 16:18:46 11° 230° (SW) 16:19:31 437.200
SO-50 28 Jun 16:27:06 16:30:58 27° 315° (NW) 16:34:50 436.795
Oscar 19 28 Jun 16:28:33 16:30:06 11° 272° (W) 16:31:40 437.125/150
ITUPSAT 1 28 Jun 16:46:22 16:50:46 36° 97° (E) 16:55:09 437.325
BEESAT 28 Jun 16:54:09 16:58:43 44° 99° (E) 17:03:15 436.000
ITAMSAT 1 28 Jun 17:08:20 17:13:26 55° 259° (W) 17:18:34 435.822/435.867
AO-7 28 Jun 17:19:56 17:28:02 56° 257° (WSW) 17:36:14 .
MOZHAYETS 4 28 Jun 17:34:58 17:39:35 79° 103° (ESE) 17:44:08
XW-2C 28 Jun 18:16:36 18:18:23 13° 64° (ENE) 18:20:09 145.795 - 145.815
KAITUO 1B 28 Jun 18:23:21 18:24:41 12° 64° (ENE) 18:26:01 145.475/437.950
CUBESAT XI-V 28 Jun 18:24:15 18:28:43 48° 99° (E) 18:33:09 437.345
ITUPSAT 1 28 Jun 18:24:29 18:28:25 26° 294° (WNW) 18:32:21 437.325
BEESAT 28 Jun 18:32:35 18:36:11 22° 296° (WNW) 18:39:47 436.000
CUTE-I 28 Jun 18:34:54 18:39:17 27° 64° (ENE) 18:43:42 437.470
KKS-1 28 Jun 18:45:57 18:50:22 52° 100° (E) 18:54:44 437.445
DOVE 4 28 Jun 18:47:50 18:51:59 68° 74° (ENE) 18:56:19 437.250
NUDT-PHONESAT 28 Jun 18:52:30 18:55:34 24° 69° (ENE) 18:58:38 437.300
STARS 28 Jun 19:06:54 19:11:02 37° 98° (E) 19:15:08 437.465
MOZHAYETS 4 28 Jun 19:14:20 19:16:04 12° 300° (WNW) 19:17:49
XW-2F 28 Jun 19:17:17 19:21:03 62° 75° (ENE) 19:24:49 145.980 - 146.000
XW-2D 28 Jun 19:23:30 19:27:20 81° 77° (ENE) 19:31:11 145.860 - 145.880
XW-2B 28 Jun 19:32:36 19:36:26 81° 258° (WSW) 19:40:17 145.730 - 145.750
LilacSat-2 28 Jun 19:35:46 19:39:36 69° 258° (WSW) 19:43:27 437.200
SEEDS 28 Jun 19:36:49 19:38:12 11° 62° (ENE) 19:39:36 437.485
XW-2C 28 Jun 19:48:24 19:52:08 50° 260° (W) 19:55:53 145.795 - 145.815
HO-68 28 Jun 19:54:00 20:00:50 48° 66° (ENE) 20:07:41 435.675
KAITUO 1B 28 Jun 19:54:31 19:58:13 55° 260° (W) 20:01:56 145.475/437.950
CUTE 1.7 + AOD 2 28 Jun 19:57:51 20:01:32 29° 69° (ENE) 20:05:13 437.475
CUBESAT XI-V 28 Jun 20:02:34 20:05:43 18° 296° (WNW) 20:08:51 437.345
CUTE-I 28 Jun 20:14:04 20:19:06 42° 262° (W) 20:24:11 437.470
STRAND 1 28 Jun 20:16:52 20:19:08 13° 89° (E) 20:21:21 437.568
AAUSAT CUBESAT 2 28 Jun 20:17:03 20:19:20 15° 64° (ENE) 20:21:37 437.432
AO-85 28 Jun 20:22:50 20:25:27 17° 112° (ESE) 20:27:59 145.980
AO-73 28 Jun 20:23:35 20:23:58 10° 59° (ENE) 20:24:21 145.935
KKS-1 28 Jun 20:23:39 20:26:29 17° 297° (WNW) 20:29:19 437.445
XW-2A 28 Jun 20:25:02 20:28:14 38° 73° (ENE) 20:31:28 145.665 - 145.685
NUDT-PHONESAT 28 Jun 20:26:21 20:29:23 23° 265° (W) 20:32:27 437.300
DOVE 4 28 Jun 20:29:56 20:30:15 10° 273° (W) 20:30:34 437.250
CUBEBUG 2 28 Jun 20:41:39 20:46:05 48° 72° (ENE) 20:50:39 437.445
STARS 28 Jun 20:43:43 20:47:08 22° 295° (WNW) 20:50:33 437.465
Oscar 11 28 Jun 20:45:15 20:47:06 13° 62° (ENE) 20:48:57 .
NO-84 28 Jun 20:54:51 20:55:38 11° 120° (ESE) 20:56:27 435.350 FM
ZACube-1 28 Jun 20:56:52 21:00:34 25° 67° (ENE) 21:04:17 437.345
RS-15 28 Jun 21:04:47 21:15:44 42° 107° (ESE) 21:26:52 29.354- 29.394
UWE-3 28 Jun 21:08:24 21:12:54 55° 73° (ENE) 21:17:28 435.000/436.395/437.385
SEEDS 28 Jun 21:09:08 21:13:19 70° 259° (W) 21:17:30 437.485
BEESAT 2 28 Jun 21:12:13 21:13:18 11° 108° (ESE) 21:14:24 435.950
YUBILEINY 28 Jun 21:13:08 21:16:00 12° 72° (ENE) 21:18:53 435.215
O/OREOS (USA 219) 28 Jun 21:16:52 21:18:51 13° 98° (E) 21:20:51 437.305
PCSat 28 Jun 21:19:39 21:24:46 40° 52° (NE) 21:29:50 145.827
CUTE 1.7 + AOD 2 28 Jun 21:33:53 21:37:21 24° 265° (W) 21:40:49 437.475
BEESAT 3 28 Jun 21:39:54 21:43:50 66° 120° (ESE) 21:47:49 437.485
HO-68 28 Jun 21:42:18 21:48:42 34° 264° (W) 21:55:10 435.675
AAUSAT CUBESAT 2 28 Jun 21:50:22 21:54:23 50° 261° (W) 21:58:24 437.432
STRAND 1 28 Jun 21:53:42 21:58:53 78° 285° (WNW) 22:04:00 437.568
AO-73 28 Jun 21:54:52 21:59:26 86° 73° (ENE) 22:04:02 145.935
XW-2A 28 Jun 21:59:43 22:01:09 12° 269° (W) 22:02:36 145.665 - 145.685
AO-85 28 Jun 22:01:37 22:05:29 45° 308° (NW) 22:09:17 145.980
Oscar 11 28 Jun 22:18:21 22:22:40 68° 259° (WSW) 22:27:01 .
CUBEBUG 2 28 Jun 22:19:44 22:22:57 18° 269° (W) 22:26:14 437.445
NO-84 28 Jun 22:28:37 22:32:27 84° 139° (SE) 22:36:37 435.350 FM
ZACube-1 28 Jun 22:32:28 22:36:39 35° 264° (W) 22:40:53 437.345
BEESAT 2 28 Jun 22:46:29 22:50:27 70° 304° (NW) 22:54:30 435.950
DELFI C3 28 Jun 22:46:37 22:50:29 64° 75° (ENE) 22:54:21 145.870
UWE-3 28 Jun 22:46:51 22:49:41 16° 270° (W) 22:52:31 435.000/436.395/437.385
M-CUBED/EXP-1 PRIME 28 Jun 22:51:20 22:52:38 11° 98° (E) 22:53:58 437.505
O/OREOS (USA 219) 28 Jun 22:53:11 22:57:41 64° 295° (WNW) 23:02:12 437.305
FO-29 28 Jun 22:54:46 23:01:33 31° 92° (E) 23:08:08 435.910
EO-88 28 Jun 22:55:59 22:59:33 53° 74° (ENE) 23:03:09 145.990 - 145.960
TIGRISAT 28 Jun 23:01:58 23:04:21 14° 89° (E) 23:06:41 435.000
YUBILEINY 28 Jun 23:02:16 23:10:56 67° 93° (E) 23:19:41 435.215
PCSat 28 Jun 23:03:17 23:08:02 32° 250° (WSW) 23:12:46 145.827
LO-87 28 Jun 23:10:53 23:11:23 10° 63° (ENE) 23:11:53 145.935 - 145.965
RS-15 28 Jun 23:15:34 23:27:42 65° 310° (NW) 23:40:02 29.354- 29.394
SO-50 28 Jun 23:16:24 23:20:45 45° 50° (NE) 23:25:08 436.795
BEESAT 3 28 Jun 23:19:17 23:21:50 16° 319° (NW) 23:24:23 437.485
PRISM 28 Jun 23:27:59 23:31:24 25° 96° (E) 23:34:48 437.425
ESTCUBE 1 28 Jun 23:33:55 23:36:39 16° 63° (ENE) 23:39:24 437.505/2401.250
STRAND 1 28 Jun 23:35:47 23:37:10 11° 304° (WNW) 23:38:33 437.568
UNISAT 6 28 Jun 23:43:33 23:47:56 40° 97° (E) 23:52:12 437.425
NO-84 29 Jun 00:07:10 00:10:30 24° 339° (NNW) 00:14:00 435.350 FM
M-CUBED/EXP-1 PRIME 29 Jun 00:23:32 00:27:17 60° 291° (WNW) 00:31:19 437.505
BEESAT 2 29 Jun 00:27:51 00:28:58 11° 324° (NW) 00:30:08 435.950
EO-88 29 Jun 00:33:15 00:33:33 10° 270° (W) 00:33:51 145.990 - 145.960
TIGRISAT 29 Jun 00:36:51 00:41:27 61° 286° (WNW) 00:45:54 435.000
FO-29 29 Jun 00:39:10 00:46:53 61° 290° (WNW) 00:54:25 435.910
LO-87 29 Jun 00:40:49 00:44:18 56° 260° (W) 00:47:51 145.935 - 145.965
SPROUT 29 Jun 00:50:34 00:54:03 25° 67° (ENE) 00:57:34 437.525
VELOX 1 29 Jun 00:55:42 00:59:21 27° 67° (ENE) 01:03:02 145.980
SO-50 29 Jun 00:57:29 01:00:56 22° 248° (WSW) 01:04:23 436.795
YUBILEINY 29 Jun 01:01:06 01:08:26 29° 294° (WNW) 01:15:50 435.215
PRISM 29 Jun 01:03:08 01:06:38 27° 292° (WNW) 01:10:08 437.425
DX 1 29 Jun 01:06:14 01:07:56 12° 61° (ENE) 01:09:38 434.975-435.025
ESTCUBE 1 29 Jun 01:08:37 01:13:01 54° 260° (W) 01:17:26 437.505/2401.250
UKube-1 29 Jun 01:17:05 01:17:55 10° 59° (ENE) 01:18:44 .
UNISAT 6 29 Jun 01:20:51 01:24:21 22° 295° (WNW) 01:27:49 437.425
POLYITAN 1 29 Jun 01:26:27 01:30:16 31° 96° (E) 01:34:02 437.675
AIST 2D 29 Jun 01:26:49 01:30:19 75° 100° (E) 01:33:47 435.315
50 SAT 29 Jun 01:32:33 01:35:20 24° 70° (ENE) 01:38:08 437.505
RS-15 29 Jun 01:32:56 01:43:16 29° 340° (NNW) 01:53:33 29.354- 29.394
QB50P2 29 Jun 01:37:17 01:41:24 44° 99° (E) 01:45:28 145.880/145.840
NO-84 29 Jun 01:46:46 01:49:20 15° 360° (N) 01:51:57 435.350 FM
EO-79 29 Jun 02:00:24 02:04:42 75° 101° (ESE) 02:08:56 145.935-145.965
DUCHIFAT 1 29 Jun 02:10:07 02:14:23 77° 101° (ESE) 02:18:37 145.980
NANOSAT C BR1 29 Jun 02:20:39 02:24:55 72° 285° (WNW) 02:29:08 145.865
SPROUT 29 Jun 02:26:04 02:29:49 30° 264° (W) 02:33:37 437.525
FO-29 29 Jun 02:26:36 02:30:21 14° 309° (NW) 02:34:07 435.910
VELOX 1 29 Jun 02:31:54 02:35:42 29° 264° (W) 02:39:33 145.980
DX 1 29 Jun 02:39:13 02:43:31 71° 257° (WSW) 02:47:52 434.975-435.025
Gurwin Techsat 1B 29 Jun 02:40:22 02:42:31 12° 88° (E) 02:44:41 435.225
UKube-1 29 Jun 02:48:58 02:53:15 83° 254° (WSW) 02:57:35 .
Oscar 19 29 Jun 02:56:14 03:00:38 28° 95° (E) 03:04:59 437.125/150
POLYITAN 1 29 Jun 03:02:26 03:05:54 24° 293° (WNW) 03:09:20 437.675
50 SAT 29 Jun 03:05:45 03:08:07 18° 266° (W) 03:10:30 437.505
BUGSAT 1 29 Jun 03:05:52 03:10:08 86° 288° (WNW) 03:14:22 437.445
QB50P2 29 Jun 03:14:00 03:16:50 18° 296° (WNW) 03:19:41 145.880/145.840
NO-84 29 Jun 03:24:40 03:28:11 23° 21° (NNE) 03:31:43 435.350 FM
EO-79 29 Jun 03:38:30 03:39:50 11° 299° (WNW) 03:41:10 145.935-145.965
DUCHIFAT 1 29 Jun 03:48:19 03:49:25 11° 299° (WNW) 03:50:31 145.980
RS-15 29 Jun 03:51:03 04:01:09 28° 16° (NNE) 04:10:58 29.354- 29.394
ITUPSAT 1 29 Jun 03:53:29 03:58:03 46° 71° (ENE) 04:02:39 437.325
BEESAT 29 Jun 04:00:54 04:05:34 55° 72° (ENE) 04:10:16 436.000
Gurwin Techsat 1B 29 Jun 04:17:45 04:23:07 83° 286° (WNW) 04:28:26 435.225
Oscar 19 29 Jun 04:35:19 04:39:59 36° 292° (WNW) 04:44:38 437.125/150
MOZHAYETS 4 29 Jun 04:37:02 04:41:40 80° 75° (ENE) 04:46:19
AO-85 29 Jun 04:51:36 04:54:47 21° 45° (NE) 04:58:06 145.980
NO-84 29 Jun 05:01:56 05:06:19 83° 37° (NE) 05:10:39 435.350 FM
ITAMSAT 1 29 Jun 05:20:19 05:25:25 49° 100° (E) 05:30:27 435.822/435.867
AO-7 29 Jun 05:20:26 05:28:32 50° 101° (E) 05:36:34 .
BEESAT 2 29 Jun 05:27:15 05:29:06 13° 37° (NE) 05:30:56 435.950
CUBESAT XI-V 29 Jun 05:27:55 05:32:23 51° 72° (ENE) 05:36:52 437.345
ITUPSAT 1 29 Jun 05:32:35 05:36:05 20° 267° (W) 05:39:37 437.325
BEESAT 29 Jun 05:40:41 05:43:40 16° 268° (W) 05:46:41 436.000
KKS-1 29 Jun 05:44:23 05:48:41 52° 72° (ENE) 05:53:00 437.445
BEESAT 3 29 Jun 05:56:01 05:59:55 47° 52° (NE) 06:03:44 437.485
Gurwin Techsat 1B 29 Jun 06:00:07 06:02:13 12° 303° (WNW) 06:04:18 435.225
STARS 29 Jun 06:03:58 06:07:58 36° 70° (ENE) 06:12:00 437.465
RS-15 29 Jun 06:04:57 06:17:02 59° 47° (NE) 06:28:28 29.354- 29.394
MOZHAYETS 4 29 Jun 06:18:37 06:19:22 10° 272° (W) 06:20:08
AO-85 29 Jun 06:31:23 06:35:20 45° 242° (WSW) 06:39:34 145.980
NO-84 29 Jun 06:40:48 06:43:24 16° 237° (WSW) 06:45:58 435.350 FM
DOVE 4 29 Jun 06:45:42 06:49:26 20° 93° (E) 06:53:15 437.250
